This demonstration page uses our WeatherBlox Daily Observations layout. Learn more.

Left ArrowRight Arrow

39.12711, -84.51439

Hourly Observations for September 1, 2022

Temp ( °F °C ) Dew Point ( °F °C ) Humidity (%) Winds ( mph kmh ) Pressure ( in mb ) Visibility ( mi km ) Precip ( " mm )
12:53 am 00:53 Clear 61 16.1 60 15.6 97 97 Calm 30.05 1018 8 13 0.00 0.00
1:53 am 01:53 Clear 61 16.1 60 15.6 97 97 Calm 30.06 1018 7 11 0.00 0.00
2:53 am 02:53 Clear with Mist and Fog 60 15.6 60 15.6 100 100 Calm 30.06 1018 5 8 0.00 0.00
3:55 am 03:55 Clear with Mist and Fog 59 15 58 14.4 96 96 Calm 30.07 1018 2 3 0.00 0.00
4:04 am 04:04 Clear with Mist and Fog 59 15 58 14.4 96 96 Calm 30.07 1018 3 5 0.00 0.00
4:53 am 04:53 Clear with Mist and Fog 60 15.6 59 15 96 96 Calm 30.06 1018 5 8 0.00 0.00
5:07 am 05:07 Clear with Mist and Fog 59 15 58 14.4 96 96 Calm 30.07 1018 1 1 0.00 0.00
5:17 am 05:17 Clear with Fog 58 14.4 58 14.4 100 100 Calm 30.08 1019 0 0 0.00 0.00
5:22 am 05:22 Clear with Mist and Fog 58 14.4 58 14.4 100 100 Calm 30.08 1019 1 2 0.00 0.00
5:30 am 05:30 Clear with Mist and Fog 59 15 59 15 100 100 Calm 30.08 1019 3 4 0.00 0.00
5:39 am 05:39 Clear with Mist and Fog 59 15 59 15 100 100 Calm 30.08 1019 5 8 0.00 0.00
5:53 am 05:53 Clear with Mist and Fog 58 14.4 58 14.4 100 100 Calm 30.07 1018 5 8 0.00 0.00
6:05 am 06:05 Mostly Clear with Mist and Fog 58 14.4 58 14.4 100 100 Calm 30.08 1019 1 2 0.00 0.00
6:09 am 06:09 Mostly Cloudy with Fog 58 14.4 58 14.4 100 100 Calm 30.08 1019 0 0 0.00 0.00
6:24 am 06:24 Mostly Clear with Fog 60 15.6 60 15.6 100 100 Calm 30.08 1019 0 0 0.00 0.00
6:35 am 06:35 Mostly Clear with Fog 58 14.4 58 14.4 100 100 Calm 30.08 1019 0 0 0.00 0.00
6:44 am 06:44 Mostly Clear with Fog 59 15 59 15 100 100 Calm 30.08 1019 0 0 0.00 0.00
6:53 am 06:53 Mostly Clear with Fog 59 15 59 15 100 100 Calm 30.07 1018 0 0 0.00 0.00
7:19 am 07:19 Mostly Cloudy with Fog 59 15 59 15 100 100 Calm 30.09 1019 1 1 0.00 0.00
7:41 am 07:41 Mostly Cloudy with Mist and Fog 59 15 59 15 100 100 Calm 30.10 1019 1 2 0.00 0.00
7:53 am 07:53 Partly Cloudy with Mist and Fog 60 15.6 60 15.6 100 100 Calm 30.09 1019 3 5 0.00 0.00
8:53 am 08:53 Sunny 64 17.8 63 17.2 96 96 Calm 30.11 1020 7 11 0.00 0.00
9:53 am 09:53 Sunny 71 21.7 65 18.3 81 81 Calm 30.11 1020 10 16 0.00 0.00
10:53 am 10:53 Sunny 76 24.4 64 17.8 67 67 S 3 6 30.11 1020 10 16 0.00 0.00
11:53 am 11:53 Mostly Sunny 79 26.1 64 17.8 60 60 Calm 30.11 1020 10 16 0.00 0.00
12:53 pm 12:53 Partly Cloudy 82 27.8 61 16.1 49 49 Calm 30.10 1019 10 16 0.00 0.00
1:53 pm 13:53 Partly Cloudy 84 28.9 60 15.6 45 45 Calm 30.09 1019 10 16 0.00 0.00
2:53 pm 14:53 Partly Cloudy 85 29.4 62 16.7 46 46 SSW 7 11 30.07 1018 10 16 0.00 0.00
3:53 pm 15:53 Partly Cloudy 84 28.9 62 16.7 48 48 SE 3 6 30.05 1018 10 16 0.00 0.00
4:53 pm 16:53 Partly Cloudy 82 27.8 62 16.7 51 51 E 3 6 30.04 1017 10 16 0.00 0.00
5:53 pm 17:53 Partly Cloudy 80 26.7 67 19.4 64 64 SSW 5 7 30.04 1017 10 16 0.00 0.00
6:53 pm 18:53 Sunny 82 27.8 63 17.2 53 53 SSW 5 7 30.03 1017 10 16 0.00 0.00
7:53 pm 19:53 Sunny 75 23.9 69 20.6 82 82 Calm 30.03 1017 10 16 0.00 0.00
8:53 pm 20:53 Clear 70 21.1 67 19.4 90 90 Calm 30.04 1017 10 16 0.00 0.00
9:53 pm 21:53 Clear 68 20 66 18.9 93 93 Calm 30.06 1018 10 16 0.00 0.00
10:53 pm 22:53 Clear 67 19.4 65 18.3 93 93 Calm 30.07 1018 10 16 0.00 0.00
11:53 pm 23:53 Clear 66 18.9 65 18.3 96 96 Calm 30.07 1018 9 14 0.00 0.00

Powered by AerisWeather